Wind_Speed
51 41 49 49 47 49 46 44 44 42 42 42 43 46 45 45 50 49 48 47 48 49 48 47 49 51 53 53 55 59 62 65 68 72 73 76 79 86 91 92 93 91 90 89
47 49 50 48 50 49 45 48 45 44 43 41 42 43 43 43 47 48 47 48 48 49 48 49 50 53 53 54 58 62 65 68 69 70 72 75 80 84 85 86 84 84 85 84
52 51 52 53 51 49 47 48 47 43 42 42 43 41 42 43 44 45 48 49 48 46 48 50 50 51 53 57 60 64 67 68 69 72 74 76 79 79 79 82 81 81 82 81
58 58 52 48 50 50 53 56 52 49 46 41 44 40 45 44 43 46 46 48 47 48 49 49 50 50 55 58 62 65 66 67 73 75 75 73 70 72 78 76 75 74 74 75
59 61 60 56 53 58 58 58 57 55 49 45 45 43 46 45 43 45 46 47 47 48 47 47 49 53 57 60 61 64 67 70 71 74 74 70 68 74 74 74 72 70 70 72
60 62 60 60 61 59 60 65 61 57 54 45 48 47 45 47 45 44 46 47 46 46 46 48 53 56 58 61 61 65 70 71 70 72 74 70 72 68 67 67 66 66 66 67
68 64 67 68 66 65 61 64 61 57 55 50 52 47 47 49 46 47 49 50 49 48 48 50 54 56 59 60 62 67 69 69 68 71 70 70 71 65 64 63 62 62 64 67
71 71 66 67 67 67 63 64 62 55 55 52 50 47 48 50 49 46 47 48 48 47 49 51 54 57 60 61 64 69 69 64 67 67 70 70 68 64 62 60 59 61 63 65
72 73 72 72 70 70 67 68 69 58 50 47 48 49 52 50 50 49 48 49 50 48 50 52 53 56 58 62 66 68 70 66 63 66 66 65 63 60 58 58 59 61 63 64
72 74 76 73 71 69 70 71 71 61 53 53 50 51 54 54 51 49 49 52 52 48 49 50 52 55 59 64 66 67 68 62 61 64 61 59 59 58 56 56 59 62 64 66
75 75 72 71 68 72 73 73 73 65 54 55 53 50 54 54 51 49 50 54 52 47 47 49 51 56 58 62 63 66 65 60 60 61 57 56 56 55 55 58 60 60 61 60
79 78 75 73 71 70 68 70 69 64 62 60 52 46 52 53 52 47 47 51 49 46 44 48 53 54 58 59 59 66 65 58 60 57 56 54 54 54 55 56 56 57 55 53
83 80 78 76 72 71 66 69 72 73 68 54 53 48 57 54 51 40 43 45 44 44 47 50 51 54 57 58 61 65 61 58 59 56 54 51 53 53 53 53 54 50 48 49
87 84 81 79 78 74 72 72 73 73 58 55 51 54 55 57 51 43 47 45 45 45 47 47 51 54 56 58 63 66 59 59 60 57 52 51 52 51 53 52 47 46 46 47
92 89 85 83 82 78 75 73 73 68 63 57 50 50 56 57 50 47 47 45 46 46 47 50 51 53 56 59 65 66 59 58 59 56 50 50 49 51 50 45 42 42 44 46
90 88 89 86 84 82 78 75 70 67 64 55 56 48 57 55 46 48 46 45 47 48 48 50 51 54 56 60 67 63 59 58 57 54 51 48 47 46 40 39 39 39 45 47
91 92 89 85 86 82 76 73 73 69 66 61 54 54 60 56 52 52 48 49 49 49 49 50 52 55 58 61 66 59 58 57 52 53 49 46 45 39 34 33 34 35 43 45
90 89 86 85 84 80 72 72 70 67 67 64 56 56 57 53 53 52 49 50 49 48 48 50 53 56 59 63 59 60 55 56 48 50 46 42 41 37 33 31 31 31 37 43
86 87 82 81 80 74 71 71 72 70 66 65 54 57 53 54 54 51 49 49 48 48 49 52 54 56 59 58 53 58 53 54 49 47 42 35 35 34 32 31 29 31 33 39
87 85 82 80 75 71 70 68 69 65 64 61 57 58 54 54 54 53 52 49 49 49 50 50 51 54 56 54 49 50 48 48 49 48 41 34 31 34 34 32 33 33 35 35
84 79 76 75 72 67 65 63 66 60 54 57 56 55 55 56 54 53 49 48 51 51 49 49 50 53 53 47 49 46 43 44 44 44 36 32 30 34 35 33 33 34 32 32
79 77 72 70 67 59 69 61 61 61 57 56 57 55 54 55 55 53 50 51 53 51 50 48 50 49 49 44 46 46 38 40 43 43 39 36 31 30 33 34 33 33 33 33
76 74 71 67 62 66 68 67 63 63 61 59 58 57 56 56 57 54 51 52 53 52 50 49 47 47 49 46 46 45 38 37 37 38 40 37 36 38 36 34 34 34 34 32
75 75 73 69 67 69 69 70 67 67 65 62 60 57 57 58 59 55 53 52 54 53 53 51 47 47 50 50 47 44 36 37 36 35 35 36 37 37 35 34 33 32 34 34
71 75 72 71 72 73 66 75 72 73 71 67 64 62 61 61 59 57 56 54 56 57 56 54 50 49 47 48 47 43 36 38 34 34 33 35 33 34 36 37 37 36 36 34
63 67 69 69 77 76 70 70 72 71 68 69 67 65 64 64 64 63 60 58 58 60 58 56 51 53 48 49 46 44 40 37 36 33 32 33 36 34 32 32 32 34 35 34
Wind_Direction
232 238 244 243 245 247 250 255 257 253 255 254 255 258 256 256 255 252 248 248 253 256 258 262 263 264 266 270 275 278 281 284 287 289 289 286 282 281 280 279 279 277 276 274
233 227 239 243 247 252 255 258 252 252 253 254 256 261 263 259 256 256 250 248 253 256 259 264 266 268 271 275 280 284 286 289 291 292 292 288 286 285 285 284 281 278 275 271
234 237 244 248 246 251 250 253 254 254 258 257 256 259 264 261 259 253 254 250 252 257 263 264 268 271 276 280 284 286 289 292 296 297 293 291 290 290 289 286 284 281 276 273
235 242 240 244 244 245 246 249 253 256 259 263 261 259 266 261 259 256 253 256 256 258 265 268 272 277 281 283 285 289 292 295 300 296 293 292 293 290 286 284 282 279 276 274
234 239 238 239 241 242 242 248 253 258 260 263 265 259 265 263 258 256 257 260 263 264 266 271 277 279 282 286 288 293 296 300 297 297 294 296 292 288 285 283 282 278 275 273
234 236 239 240 243 249 251 250 252 257 259 260 265 263 261 264 259 255 257 262 265 266 269 273 277 282 287 289 294 296 299 300 299 297 296 294 291 291 287 284 280 278 276 274
239 237 236 237 241 249 253 252 253 254 258 262 261 262 258 262 262 261 261 263 266 269 271 275 281 286 288 292 294 298 299 300 299 296 296 296 292 292 289 285 282 280 278 276
234 240 239 240 243 245 244 255 254 257 259 256 258 260 260 260 262 264 265 267 267 270 274 279 284 287 290 293 296 300 301 301 300 299 296 294 292 293 289 287 287 286 285 284
234 234 235 236 240 246 249 254 255 260 252 257 260 259 259 261 261 263 266 269 272 275 278 282 284 288 291 294 299 302 304 302 301 297 295 295 295 295 292 290 291 289 288 286
234 235 235 238 239 242 246 247 255 260 254 258 260 262 261 260 262 265 268 270 271 275 279 282 287 290 294 297 302 304 304 304 302 298 298 299 300 299 296 294 293 292 290 290
238 237 236 237 238 240 242 248 252 254 255 259 261 263 262 263 264 265 268 269 273 276 278 283 288 293 297 301 305 307 306 306 303 302 302 303 303 301 300 299 296 295 295 295
239 239 239 240 241 242 244 246 251 255 256 257 258 263 264 265 263 263 267 269 274 276 280 286 290 297 300 305 309 311 312 309 306 309 309 308 307 306 303 301 302 302 303 299
237 238 240 240 241 241 243 245 247 250 254 256 255 256 261 260 263 265 265 267 271 276 280 287 294 299 302 308 309 313 317 315 314 315 311 310 311 311 309 308 307 307 304 300
235 237 240 242 242 241 241 242 245 250 254 256 253 254 256 259 262 264 265 269 272 276 283 290 296 301 304 310 313 316 322 320 319 319 313 315 314 315 313 311 311 309 308 310
235 236 238 240 242 242 242 245 247 250 249 251 254 254 256 257 260 261 263 266 270 278 284 291 297 301 305 307 315 319 324 322 320 320 318 319 319 317 314 315 315 313 315 318
233 235 237 237 239 241 242 245 249 252 253 250 251 253 254 256 256 256 261 266 271 278 285 289 294 299 305 310 315 319 324 323 320 321 323 322 320 318 319 322 322 320 321 329
232 232 234 235 238 240 242 247 248 251 253 252 254 247 250 254 256 260 262 266 272 276 281 288 293 301 305 311 316 319 323 325 323 324 324 322 321 321 325 326 326 326 327 336
234 235 236 236 237 239 240 242 244 246 249 251 247 245 247 254 256 260 263 267 273 278 283 289 295 302 308 312 316 320 322 326 328 326 324 323 323 326 328 328 327 331 332 338
233 235 234 236 237 238 239 240 243 243 242 247 246 246 248 249 253 257 261 269 274 278 284 289 295 303 308 312 315 322 322 329 329 332 323 324 335 340 338 338 340 345 347 341
231 233 235 235 235 235 238 237 237 240 240 243 243 244 245 248 252 258 264 269 273 276 281 289 295 303 306 309 314 322 324 332 333 331 331 328 340 345 347 351 352 356 358 353
228 230 232 233 235 231 231 228 232 234 236 240 239 243 245 250 256 259 263 268 271 275 284 290 297 301 306 307 314 319 323 331 337 334 336 337 349 348 348 349 348 347 348 351
225 226 226 227 230 222 222 223 225 229 233 236 235 239 244 248 253 259 263 267 271 277 284 289 295 300 306 305 315 316 319 327 335 340 340 346 350 350 351 352 353 352 347 345
222 222 224 224 220 220 219 217 223 223 223 228 235 238 243 248 252 257 262 267 272 278 281 287 295 296 304 304 310 313 312 318 325 336 345 350 353 352 351 351 352 351 350 348
218 220 220 220 217 221 217 218 217 219 222 227 231 237 241 246 251 257 263 268 271 276 279 285 293 295 301 301 305 306 304 310 318 325 334 343 348 349 354 355 355 357 354 351
217 216 216 216 217 221 220 220 221 225 228 233 235 237 240 247 252 256 260 266 269 273 276 284 291 294 296 296 302 303 300 303 312 317 326 334 338 346 350 351 351 353 354 354
219 216 216 217 219 221 223 222 221 225 226 230 233 236 240 245 250 255 260 265 269 272 277 285 288 290 292 293 298 299 293 298 304 313 317 322 328 332 337 344 349 349 349 348
Height
10543 10549 10550 10554 10557 10558 10560 10562 10564 10566 10565 10567 10568 10566 10570 10572 10569 10571 10574 10576 10576 10577 10579 10579 10577 10576 10575 10573 10570 10566 10561 10557 10550 10542 10532 10525 10519 10516 10513 10510 10505 10499 10497 10496
10532 10535 10539 10543 10545 10547 10549 10552 10554 10556 10556 10558 10558 10557 10559 10562 10560 10560 10564 10566 10566 10567 10569 10567 10565 10564 10563 10560 10556 10551 10546 10540 10534 10525 10514 10507 10503 10496 10489 10483 10477 10472 10468 10467
10520 10524 10528 10530 10534 10536 10540 10542 10543 10546 10546 10548 10548 10550 10549 10550 10551 10552 10552 10555 10557 10557 10557 10556 10554 10553 10551 10547 10542 10537 10531 10525 10516 10505 10496 10489 10483 10475 10466 10457 10451 10445 10442 10440
10509 10512 10515 10518 10522 10526 10529 10530 10532 10534 10536 10539 10538 10543 10538 10540 10543 10543 10543 10544 10546 10547 10546 10545 10543 10541 10537 10533 10528 10522 10515 10508 10498 10486 10478 10472 10466 10458 10446 10438 10433 10426 10421 10418
10496 10498 10503 10508 10512 10514 10518 10518 10520 10523 10526 10529 10528 10531 10527 10529 10533 10534 10534 10535 10536 10535 10536 10534 10531 10528 10524 10519 10515 10508 10501 10492 10481 10469 10460 10455 10447 10437 10427 10419 10413 10406 10402 10399
10481 10485 10490 10495 10498 10502 10505 10506 10509 10512 10515 10521 10517 10518 10520 10518 10522 10524 10524 10524 10525 10525 10525 10523 10519 10516 10511 10505 10500 10493 10485 10475 10464 10452 10443 10437 10428 10419 10410 10402 10396 10389 10384 10381
10464 10470 10476 10481 10485 10489 10491 10492 10496 10501 10504 10509 10505 10509 10510 10508 10511 10512 10513 10513 10513 10514 10513 10511 10506 10502 10498 10494 10488 10480 10470 10459 10449 10437 10427 10418 10409 10400 10392 10385 10378 10372 10367 10361
10447 10455 10460 10466 10471 10473 10476 10479 10484 10489 10492 10495 10496 10501 10497 10498 10500 10501 10501 10501 10502 10503 10501 10498 10494 10489 10484 10479 10473 10464 10454 10444 10433 10420 10410 10402 10393 10385 10375 10367 10362 10355 10348 10343
10430 10437 10444 10450 10455 10459 10466 10469 10468 10476 10481 10483 10487 10487 10485 10486 10488 10491 10491 10489 10489 10491 10489 10486 10483 10477 10472 10466 10459 10449 10438 10428 10416 10406 10395 10384 10375 10368 10361 10353 10346 10339 10332 10324
10413 10420 10428 10434 10440 10446 10452 10454 10456 10464 10468 10472 10477 10475 10473 10473 10477 10479 10480 10478 10478 10482 10478 10474 10471 10466 10460 10453 10445 10435 10423 10413 10401 10390 10380 10370 10360 10351 10345 10338 10331 10324 10314 10306
10396 10403 10412 10418 10427 10430 10436 10442 10443 10448 10456 10460 10464 10465 10460 10461 10465 10469 10469 10465 10467 10469 10466 10463 10460 10454 10448 10440 10432 10421 10409 10399 10387 10375 10365 10357 10348 10339 10331 10323 10315 10306 10297 10289
10378 10384 10394 10401 10407 10414 10421 10428 10430 10436 10443 10445 10451 10457 10449 10447 10451 10458 10459 10455 10456 10456 10454 10452 10447 10442 10436 10428 10419 10407 10396 10385 10372 10362 10353 10344 10334 10325 10317 10308 10298 10289 10280 10271
10359 10369 10374 10383 10391 10399 10408 10413 10416 10420 10426 10438 10440 10446 10433 10436 10439 10450 10448 10446 10447 10446 10443 10440 10435 10431 10424 10416 10407 10395 10383 10372 10360 10350 10340 10331 10322 10312 10303 10294 10284 10275 10266 10257
10339 10349 10358 10366 10372 10381 10390 10395 10399 10404 10419 10426 10430 10427 10426 10425 10431 10438 10434 10436 10437 10435 10431 10428 10424 10418 10412 10404 10394 10383 10370 10359 10348 10338 10329 10320 10310 10300 10290 10281 10272 10263 10253 10243
10317 10329 10337 10344 10353 10364 10374 10380 10387 10398 10405 10410 10416 10418 10412 10413 10423 10425 10425 10426 10425 10424 10420 10417 10413 10408 10401 10394 10383 10371 10359 10349 10338 10328 10318 10309 10300 10290 10280 10270 10263 10254 10243 10234
10299 10308 10314 10326 10335 10347 10358 10368 10376 10384 10393 10401 10398 10411 10398 10403 10412 10412 10415 10416 10415 10413 10410 10407 10403 10398 10392 10383 10373 10362 10351 10341 10330 10320 10310 10300 10291 10281 10271 10262 10255 10247 10235 10225
10274 10285 10296 10311 10319 10331 10348 10358 10363 10370 10376 10383 10392 10393 10385 10393 10399 10399 10405 10404 10405 10403 10400 10397 10393 10387 10381 10373 10363 10354 10344 10333 10322 10312 10302 10293 10283 10273 10263 10255 10248 10242 10229 10220
10262 10274 10285 10298 10304 10321 10338 10341 10347 10356 10361 10369 10377 10377 10377 10385 10386 10389 10393 10392 10392 10391 10389 10385 10381 10377 10370 10363 10354 10346 10336 10325 10315 10305 10296 10287 10278 10267 10257 10249 10243 10236 10226 10216
10247 10255 10270 10278 10294 10310 10319 10325 10330 10340 10349 10354 10366 10365 10369 10371 10373 10379 10380 10381 10380 10379 10377 10374 10371 10367 10361 10354 10346 10339 10329 10319 10309 10300 10290 10281 10272 10262 10254 10247 10239 10232 10225 10216
10227 10239 10252 10266 10279 10294 10303 10311 10318 10326 10336 10344 10349 10352 10357 10358 10361 10367 10369 10370 10369 10369 10368 10366 10362 10358 10352 10345 10339 10333 10324 10314 10303 10295 10285 10276 10267 10259 10251 10243 10235 10229 10223 10217
10210 10222 10238 10249 10263 10280 10286 10295 10305 10315 10322 10329 10336 10340 10344 10346 10350 10354 10358 10359 10357 10357 10358 10356 10353 10349 10343 10337 10330 10326 10320 10311 10301 10292 10283 10274 10264 10257 10249 10240 10233 10227 10222 10217
10195 10208 10223 10235 10248 10268 10266 10283 10293 10300 10309 10316 10322 10327 10331 10333 10336 10341 10345 10346 10345 10347 10346 10346 10343 10338 10333 10329 10323 10318 10314 10307 10298 10288 10279 10271 10262 10255 10247 10239 10233 10226 10220 10215
10181 10196 10210 10224 10239 10243 10256 10270 10278 10286 10294 10302 10308 10314 10319 10322 10326 10330 10334 10334 10335 10335 10334 10334 10333 10328 10324 10321 10317 10312 10307 10302 10295 10287 10277 10268 10261 10254 10245 10239 10232 10226 10221 10215
10165 10180 10195 10209 10223 10231 10244 10255 10264 10273 10282 10288 10297 10304 10308 10311 10314 10319 10321 10322 10323 10323 10323 10323 10322 10318 10315 10311 10309 10305 10300 10296 10290 10283 10276 10269 10261 10254 10247 10240 10234 10228 10221 10214
10153 10165 10186 10200 10209 10218 10233 10239 10251 10261 10270 10279 10286 10291 10295 10297 10303 10306 10308 10311 10312 10311 10311 10312 10311 10308 10306 10302 10299 10295 10293 10289 10283 10278 10271 10266 10260 10254 10246 10239 10233 10227 10222 10216
10154 10168 10180 10195 10192 10200 10215 10228 10240 10248 10257 10265 10272 10277 10283 10287 10290 10293 10295 10299 10299 10299 10299 10301 10299 10296 10296 10292 10289 10285 10283 10281 10276 10271 10266 10261 10255 10250 10245 10239 10234 10227 10222 10217